SCP
0 0 0 0 0 0 0 0 0 0 0 0 0 0 0 0 0 0 0 0 0 0 0 0 0 0 0 0 0 0 0 0 0 0 0 0 0 0 0 0 0 0 0 0 0
0 0 0 0 0 0 0 0 0 0 0 0 0 0 0 0 0 0 0 0 0 0 0 0 0 0 0 0 0 0 0 0 0 0 0 0 0 0 0 0 0 0 0 0 0
0 0 0 0 0 0 0 0 0 0 0 0 0 0 0 0 0 0 0 0 0 0 0 0 0 0 0 0 0 0 0 0 0 0 0 0 0 0 0 0 0 0 0 0 0
0 0 0 0 0 0 0 0 0 0 0 0 0 0 0 0 0 0 0 0 0 0 0 0 0 0 0 0 0 0 0 0 0 0 0 0 0 0 0 0 0 0 0 0 0
0 0 0 0 0 0 0 0 0 0 0 0 0 0 0 0 0 0 0 0 0 0 0 0 0 0 0 0 0 0 0 0 0 0 0 0 0 0 0 0 0 0 0 0 0
0 0 0 0 0 0 0 0 0 0 0 0 0 0 1 0 0 0 0 0 0 0 0 0 0 0 0 0 0 0 0 0 0 0 0 0 0 0 0 0 0 0 0 0 0
0 0 0 0 0 0 0 0 0 0 0 0 1 1 0 0 0 0 0 0 0 0 0 0 0 0 0 0 0 0 0 0 0 0 0 0 0 0 0 0 0 0 0 0 0
1 0 0 0 0 0 0 0 0 0 1 1 0 1 0 0 0 0 0 0 0 0 0 0 0 0 0 0 0 0 0 0 0 0 0 0 0 0 0 0 0 0 0 0 0
0 0 0 0 0 0 0 0 0 1 0 1 1 0 0 0 0 0 0 0 0 0 0 0 0 0 0 0 0 0 0 0 0 0 0 0 0 0 0 0 0 0 0 0 0
0 0 0 0 0 0 0 0 0 1 1 1 0 1 0 0 0 0 0 0 0 0 0 0 0 0 0 0 0 0 0 0 0 0 0 0 0 0 0 0 0 0 0 0 0
0 1 0 0 0 1 1 1 0 0 1 0 0 0 0 0 0 0 0 0 0 0 0 0 0 0 0 0 0 0 0 0 0 0 0 0 0 0 0 0 0 0 0 0 0
1 0 1 0 0 1 1 0 0 0 0 0 0 0 0 0 0 0 0 0 0 0 0 0 0 0 0 0 0 0 0 0 0 0 0 0 0 0 0 0 0 0 0 0 0
1 1 0 0 0 1 0 0 0 0 0 0 0 0 0 0 0 0 0 0 0 0 0 0 0 0 0 0 0 0 0 0 0 0 0 0 0 0 0 0 0 0 0 0 -0
0 1 0 0 0 0 0 0 0 0 0 0 0 0 0 0 0 0 0 0 0 0 0 0 0 0 0 0 0 0 0 0 0 0 0 0 -0 0 0 0 0 0 0 0 0
0 1 0 1 0 0 0 0 0 0 0 0 0 0 0 0 0 0 0 0 0 0 0 0 0 0 0 0 0 0 0 -0 -0 0 0 0 0 -0 -0 -0 0 0 0 0 0
0 0 0 0 0 0 0 0 0 0 0 0 0 0 0 0 0 0 0 0 0 0 0 0 0 0 0 0 0 0 0 0 -0 -0 0 0 0 -0 -0 -0 0 0 0 0 0
0 0 0 0 0 0 0 0 0 0 0 0 0 0 0 0 0 0 0 0 0 0 0 0 0 0 0 0 0 0 0 0 -0 0 0 0 0 0 0 0 0 0 0 0 0
0 0 0 0 0 0 0 0 0 0 0 0 0 0 0 0 0 0 0 0 0 0 0 0 0 0 0 0 0 0 0 0 0 -0 -0 0 0 0 -0 -0 -0 0 0 0 0
0 0 0 0 0 0 0 0 0 0 0 0 0 0 0 0 0 0 0 0 0 0 0 0 0 0 0 0 0 0 0 0 0 0 0 -0 0 0 0 0 0 0 0 0 0
1 0 0 0 0 0 0 0 0 0 0 0 0 0 0 0 0 0 0 0 0 0 0 0 0 0 0 0 0 0 0 0 0 0 0 -0 -0 0 0 0 0 0 0 0 0
0 0 0 0 0 0 0 0 0 0 0 0 0 0 0 0 0 0 0 0 0 0 0 0 0 0 0 0 0 0 0 0 0 0 0 0 0 0 0 0 0 0 0 0 0
0 0 0 0 0 0 0 0 0 0 0 0 0 0 0 0 0 0 0 0 0 0 0 0 0 0 0 0 0 0 0 0 0 0 0 0 0 0 0 0 0 0 0 -0 -0
0 0 0 0 0 0 0 0 0 0 0 0 0 0 0 0 0 0 0 0 0 0 0 0 0 0 0 0 0 0 0 0 0 0 0 0 0 0 0 0 0 0 0 0 0
0 0 0 0 0 0 0 0 0 0 0 0 0 0 0 0 0 0 0 0 0 0 0 0 0 0 0 0 0 0 0 0 0 0 0 0 0 0 0 0 0 -0 -0 -0 -0
0 0 0 0 0 0 0 0 0 0 0 0 0 0 0 0 0 0 0 0 0 0 0 0 0 0 0 0 0 0 0 0 0 0 0 0 0 0 0 0 0 -0 -0 -0 0
0 0 0 0 0 0 0 0 0 0 0 0 0 0 0 0 0 0 0 0 0 0 0 0 0 0 0 0 0 0 0 0 0 0 0 0 0 0 0 0 0 0 -0 -0 -0
0 0 0 0 0 0 0 0 0 0 0 0 0 0 0 0 0 0 0 0 0 0 0 0 0 0 0 0 0 0 0 0 0 0 0 0 0 -0 -0 -0 -0 -0 -0 -0 -0
Wind_Speed_500mb
69 73 74 64 63 75 71 65 64 57 61 65 63 56 54 50 53 55 61 48 43 21 25 23 22 14 7 6 7 9 9 12 11 11 3 11 16 7 9 7 11 13 6 8 17
76 74 72 77 61 65 76 74 66 65 55 62 64 61 57 54 58 67 68 51 37 42 21 21 21 16 7 8 5 10 8 11 2 5 4 10 14 15 12 15 15 13 20 15 19
80 79 76 73 75 59 72 76 69 65 62 52 59 59 61 66 59 56 67 57 47 34 39 22 21 20 11 10 10 7 10 7 6 8 9 9 13 13 14 14 21 20 21 23 25
85 84 80 77 74 73 60 76 73 68 65 57 56 58 53 54 33 30 64 65 58 42 34 35 25 16 13 13 11 11 10 6 4 5 5 9 10 13 23 12 8 16 17 24 30
89 88 86 81 78 77 69 67 74 69 63 60 56 59 51 50 47 23 45 52 46 43 34 29 28 20 21 12 12 14 9 10 11 12 12 6 14 15 23 26 20 15 19 27 32
89 92 89 86 80 77 77 64 70 72 63 62 57 58 58 46 29 56 52 45 46 43 43 33 19 24 16 13 18 9 11 11 5 7 8 11 14 10 18 22 25 28 21 26 32
89 91 92 88 81 78 78 71 64 72 66 60 62 56 53 55 32 25 51 59 58 57 40 34 22 19 16 16 11 9 9 7 18 21 10 7 22 22 25 18 21 24 24 27 32
92 91 90 92 85 80 74 75 64 67 67 60 65 57 26 49 37 33 49 44 54 42 39 27 28 15 5 16 8 13 7 20 11 14 9 15 40 28 27 27 32 29 28 32 38
96 91 95 94 89 81 73 74 67 61 65 57 55 58 21 42 54 45 43 54 53 47 36 25 19 7 7 13 8 7 26 19 14 16 5 21 31 32 25 23 36 37 38 36 36
97 95 98 97 94 83 74 65 55 52 54 51 59 26 19 53 62 57 54 62 53 43 26 18 15 6 3 19 29 19 15 12 17 6 14 25 35 29 14 17 31 38 38 37 39
81 89 86 98 96 86 74 63 39 25 61 49 24 26 42 41 53 59 55 52 39 36 19 25 10 20 26 15 8 9 9 10 0 6 7 28 35 42 43 43 41 37 38 45 50
85 85 72 100 101 90 81 76 85 37 39 59 33 52 29 42 18 61 66 36 28 27 27 11 36 46 24 17 24 13 12 5 8 4 4 27 36 43 45 42 51 56 55 49 41
85 83 77 83 97 88 99 95 78 54 20 34 30 33 39 43 34 57 73 35 28 26 36 22 10 30 35 33 27 16 9 5 2 14 21 27 44 47 37 50 58 63 65 66 68
65 85 70 85 88 104 102 90 78 59 13 14 21 18 31 25 16 58 70 36 17 32 31 20 11 35 37 44 36 35 25 22 14 5 6 10 17 35 34 32 35 50 61 72 76
79 71 75 84 59 97 105 102 87 43 17 28 16 24 36 33 28 30 60 17 32 25 18 18 33 35 43 46 34 22 31 33 24 19 20 31 15 17 16 27 37 52 57 63 66
81 73 68 71 76 106 99 98 68 10 15 17 24 24 16 15 9 28 32 26 2 17 7 14 8 15 17 22 36 23 21 12 8 11 17 35 29 19 18 19 29 44 51 50 48
83 77 74 80 92 98 109 97 14 13 21 25 21 28 23 14 9 11 19 16 16 14 13 10 9 8 19 22 16 23 22 6 7 10 20 5 20 34 21 31 32 33 35 27 27
82 79 76 77 66 113 120 32 14 12 18 12 30 36 45 19 16 8 21 16 9 7 10 21 17 29 18 17 14 32 25 9 12 14 6 8 21 12 39 55 56 52 46 49 49
83 78 78 78 97 124 83 27 13 28 24 34 44 47 24 28 17 24 23 25 21 30 23 22 9 7 19 9 22 15 13 16 1 1 5 10 22 24 31 30 28 34 33 37 42
88 75 75 61 106 124 35 15 11 17 32 44 25 35 36 41 30 35 32 28 21 37 4 5 9 3 21 13 12 12 22 7 6 13 14 19 23 21 6 17 25 26 25 25 38
81 39 58 82 79 94 29 10 14 41 52 25 23 29 36 45 44 33 33 19 39 41 38 11 6 7 19 21 28 8 8 8 5 7 5 8 16 10 26 25 18 16 16 35 51
54 13 55 87 28 16 19 24 29 38 14 10 14 12 33 45 34 36 33 22 28 44 39 23 4 11 19 9 2 33 26 27 7 12 9 11 26 16 17 11 7 29 42 38 21
54 17 41 105 16 16 21 33 23 31 16 9 9 7 11 27 17 28 22 6 18 32 29 29 17 10 9 8 14 19 36 35 35 1 25 13 29 10 3 10 20 27 43 56 64
35 10 24 47 34 45 42 33 23 13 10 16 14 27 30 25 8 24 18 4 14 27 21 41 13 29 27 12 11 21 33 37 37 18 39 33 64 58 39 33 44 48 55 60 69
12 4 8 13 22 37 33 30 40 18 11 14 8 19 19 15 9 6 15 8 10 6 19 25 15 29 36 12 5 7 8 34 44 53 33 53 50 78 29 28 33 29 46 61 63
15 12 27 11 55 43 32 34 40 15 8 9 23 25 16 16 18 17 26 19 12 4 19 5 4 11 9 25 23 26 28 30 28 26 27 49 52 87 43 45 40 47 48 55 63
18 50 46 34 33 31 20 35 33 27 19 15 35 22 25 18 30 23 19 15 17 18 17 15 9 6 10 11 8 15 50 44 45 41 41 39 63 57 39 39 50 55 60 62 68
Wind_Direction_500mb
233 233 233 232 225 225 224 222 226 227 227 223 224 222 221 217 220 221 225 228 224 222 221 228 221 222 198 137 130 148 213 228 231 203 144 172 195 167 194 175 193 202 192 219 189
231 233 230 229 228 223 221 221 223 223 226 223 224 221 225 216 223 223 221 225 223 223 221 215 210 200 175 152 164 211 229 214 257 216 217 197 214 176 182 194 217 218 227 223 201
230 230 229 228 227 226 221 219 219 223 222 224 224 220 222 221 214 232 224 221 220 221 222 218 204 192 197 169 176 187 239 188 195 252 245 218 204 187 201 213 224 224 214 219 205
230 227 229 229 226 224 224 218 217 221 220 221 221 219 214 212 218 216 228 220 219 217 217 210 188 181 192 194 180 207 225 211 183 177 215 213 171 203 215 222 194 218 218 223 213
229 227 225 228 228 221 220 219 217 216 219 217 218 216 210 220 225 228 206 221 209 195 202 202 178 182 202 186 170 218 192 211 242 256 277 242 229 224 232 225 220 233 236 229 223
229 224 223 225 227 222 217 218 216 215 216 214 218 212 208 220 238 239 242 222 186 185 194 194 198 197 172 179 210 192 211 221 235 235 242 237 248 225 235 221 222 231 232 230 229
226 222 220 221 223 219 217 216 216 211 210 214 216 211 209 217 220 216 206 209 207 194 181 189 182 172 161 150 168 163 227 230 230 237 242 216 244 231 232 218 217 226 226 230 230
223 221 218 217 219 216 217 213 215 211 204 213 217 201 214 212 208 203 213 196 209 216 217 182 177 154 148 127 112 199 212 239 184 198 224 207 254 237 245 234 232 231 233 235 234
220 218 215 214 215 212 214 209 211 210 204 208 214 178 203 186 198 199 203 194 181 180 178 200 174 112 147 177 178 219 235 225 247 213 204 212 258 258 246 239 247 243 241 240 238
219 214 213 212 209 208 205 199 202 199 202 207 213 189 214 190 193 189 194 198 185 195 184 188 104 16 189 202 214 211 221 220 228 178 228 238 252 250 255 248 252 253 248 246 243
215 217 218 206 205 201 194 183 166 180 198 197 206 177 176 180 187 192 182 172 175 174 181 191 169 209 240 257 297 158 185 240 267 278 271 254 259 267 260 252 251 253 252 248 245
210 205 201 208 204 194 190 187 186 194 184 203 218 199 199 164 147 170 176 164 170 186 163 150 215 214 202 238 237 198 180 169 333 355 314 277 270 272 260 252 252 249 247 249 248
206 207 204 191 192 189 193 193 176 158 148 195 197 189 180 180 187 175 181 186 183 175 186 200 257 190 181 186 192 198 176 146 150 351 290 289 275 269 255 245 250 249 248 249 248
202 203 204 200 200 189 193 186 175 163 153 173 193 208 182 171 209 186 182 172 180 186 180 220 178 171 184 188 194 212 200 200 200 57 277 325 290 275 276 259 249 254 246 247 246
203 203 200 202 193 183 186 184 171 182 195 158 156 180 171 187 144 190 185 191 173 159 174 170 172 183 183 196 196 229 172 193 204 214 267 258 262 262 257 264 259 254 252 248 250
199 197 197 191 196 187 180 170 163 160 174 156 149 181 135 165 147 165 180 151 353 151 117 150 168 172 174 179 191 145 135 155 162 206 249 251 224 258 261 253 257 256 254 256 255
195 195 196 192 192 182 172 157 161 207 155 153 168 169 163 161 125 198 184 166 172 159 167 125 194 163 161 154 188 178 161 171 187 194 246 32 223 251 250 240 244 255 258 271 265
194 193 193 200 173 171 162 165 194 122 161 173 163 157 183 155 194 173 175 191 200 105 136 171 189 184 187 201 180 189 186 190 214 210 249 97 240 250 243 247 262 260 272 281 284
190 190 188 201 181 172 162 171 153 160 154 147 147 167 176 181 153 185 208 197 173 187 192 185 186 192 184 155 168 163 201 238 271 318 262 221 258 260 253 252 264 271 270 282 299
178 178 189 182 171 165 170 162 115 167 141 148 144 173 176 186 176 191 186 198 190 198 262 195 155 220 182 204 216 201 142 148 184 213 231 234 263 250 240 265 237 260 280 297 325
174 169 192 197 175 163 177 107 129 151 140 162 153 157 182 180 194 192 194 173 194 189 187 156 183 134 164 203 193 144 177 221 191 184 240 277 249 252 234 262 298 302 298 306 319
163 153 187 191 165 165 157 143 135 151 136 120 125 128 168 177 190 196 198 220 190 180 192 175 148 182 200 132 279 211 204 194 197 195 251 305 267 209 249 255 301 300 307 321 331
155 140 190 175 158 145 120 125 132 153 146 107 112 152 138 164 176 205 201 185 175 187 190 177 212 197 198 225 212 219 220 229 232 294 239 248 265 60 269 290 318 322 324 323 319
150 147 155 175 157 136 133 141 127 114 72 82 110 122 119 159 22 181 181 159 171 201 172 165 197 211 219 225 187 208 223 220 226 231 243 238 264 260 260 275 300 301 300 303 311
115 120 123 145 148 142 123 142 138 139 95 129 109 167 131 143 135 159 163 142 82 161 167 186 218 219 238 241 95 181 232 235 230 236 235 249 253 266 268 286 299 308 302 302 301
126 144 98 101 142 138 121 158 146 122 158 103 137 132 115 141 172 164 168 178 176 109 168 173 135 185 246 236 244 250 248 239 235 258 246 259 269 263 293 287 289 288 297 297 296
183 132 129 144 142 150 155 151 141 129 41 122 143 120 86 86 101 100 145 117 141 176 166 179 146 149 229 194 194 255 238 246 248 240 236 250 251 281 280 283 285 288 291 290 292
Wind_Speed_850mb
69 73 74 64 63 75 71 65 64 57 61 65 63 56 54 50 53 55 61 48 43 21 25 23 22 14 7 6 7 9 9 12 11 11 3 11 16 7 9 7 11 13 6 8 17
76 74 72 77 61 65 76 74 66 65 55 62 64 61 57 54 58 67 68 51 37 42 21 21 21 16 7 8 5 10 8 11 2 5 4 10 14 15 12 15 15 13 20 15 19
80 79 76 73 75 59 72 76 69 65 62 52 59 59 61 66 59 56 67 57 47 34 39 22 21 20 11 10 10 7 10 7 6 8 9 9 13 13 14 14 21 20 21 23 25
85 84 80 77 74 73 60 76 73 68 65 57 56 58 53 54 33 30 64 65 58 42 34 35 25 16 13 13 11 11 10 6 4 5 5 9 10 13 23 12 8 16 17 24 30
89 88 86 81 78 77 69 67 74 69 63 60 56 59 51 50 47 23 45 52 46 43 34 29 28 20 21 12 12 14 9 10 11 12 12 6 14 15 23 26 20 15 19 27 32
89 92 89 86 80 77 77 64 70 72 63 62 57 58 58 46 29 56 52 45 46 43 43 33 19 24 16 13 18 9 11 11 5 7 8 11 14 10 18 22 25 28 21 26 32
89 91 92 88 81 78 78 71 64 72 66 60 62 56 53 55 32 25 51 59 58 57 40 34 22 19 16 16 11 9 9 7 18 21 10 7 22 22 25 18 21 24 24 27 32
92 91 90 92 85 80 74 75 64 67 67 60 65 57 26 49 37 33 49 44 54 42 39 27 28 15 5 16 8 13 7 20 11 14 9 15 40 28 27 27 32 29 28 32 38
96 91 95 94 89 81 73 74 67 61 65 57 55 58 21 42 54 45 43 54 53 47 36 25 19 7 7 13 8 7 26 19 14 16 5 21 31 32 25 23 36 37 38 36 36
97 95 98 97 94 83 74 65 55 52 54 51 59 26 19 53 62 57 54 62 53 43 26 18 15 6 3 19 29 19 15 12 17 6 14 25 35 29 14 17 31 38 38 37 39
81 89 86 98 96 86 74 63 39 25 61 49 24 26 42 41 53 59 55 52 39 36 19 25 10 20 26 15 8 9 9 10 0 6 7 28 35 42 43 43 41 37 38 45 50
85 85 72 100 101 90 81 76 85 37 39 59 33 52 29 42 18 61 66 36 28 27 27 11 36 46 24 17 24 13 12 5 8 4 4 27 36 43 45 42 51 56 55 49 41
85 83 77 83 97 88 99 95 78 54 20 34 30 33 39 43 34 57 73 35 28 26 36 22 10 30 35 33 27 16 9 5 2 14 21 27 44 47 37 50 58 63 65 66 68
65 85 70 85 88 104 102 90 78 59 13 14 21 18 31 25 16 58 70 36 17 32 31 20 11 35 37 44 36 35 25 22 14 5 6 10 17 35 34 32 35 50 61 72 76
79 71 75 84 59 97 105 102 87 43 17 28 16 24 36 33 28 30 60 17 32 25 18 18 33 35 43 46 34 22 31 33 24 19 20 31 15 17 16 27 37 52 57 63 66
81 73 68 71 76 106 99 98 68 10 15 17 24 24 16 15 9 28 32 26 2 17 7 14 8 15 17 22 36 23 21 12 8 11 17 35 29 19 18 19 29 44 51 50 48
83 77 74 80 92 98 109 97 14 13 21 25 21 28 23 14 9 11 19 16 16 14 13 10 9 8 19 22 16 23 22 6 7 10 20 5 20 34 21 31 32 33 35 27 27
82 79 76 77 66 113 120 32 14 12 18 12 30 36 45 19 16 8 21 16 9 7 10 21 17 29 18 17 14 32 25 9 12 14 6 8 21 12 39 55 56 52 46 49 49
83 78 78 78 97 124 83 27 13 28 24 34 44 47 24 28 17 24 23 25 21 30 23 22 9 7 19 9 22 15 13 16 1 1 5 10 22 24 31 30 28 34 33 37 42
88 75 75 61 106 124 35 15 11 17 32 44 25 35 36 41 30 35 32 28 21 37 4 5 9 3 21 13 12 12 22 7 6 13 14 19 23 21 6 17 25 26 25 25 38
81 39 58 82 79 94 29 10 14 41 52 25 23 29 36 45 44 33 33 19 39 41 38 11 6 7 19 21 28 8 8 8 5 7 5 8 16 10 26 25 18 16 16 35 51
54 13 55 87 28 16 19 24 29 38 14 10 14 12 33 45 34 36 33 22 28 44 39 23 4 11 19 9 2 33 26 27 7 12 9 11 26 16 17 11 7 29 42 38 21
54 17 41 105 16 16 21 33 23 31 16 9 9 7 11 27 17 28 22 6 18 32 29 29 17 10 9 8 14 19 36 35 35 1 25 13 29 10 3 10 20 27 43 56 64
35 10 24 47 34 45 42 33 23 13 10 16 14 27 30 25 8 24 18 4 14 27 21 41 13 29 27 12 11 21 33 37 37 18 39 33 64 58 39 33 44 48 55 60 69
12 4 8 13 22 37 33 30 40 18 11 14 8 19 19 15 9 6 15 8 10 6 19 25 15 29 36 12 5 7 8 34 44 53 33 53 50 78 29 28 33 29 46 61 63
15 12 27 11 55 43 32 34 40 15 8 9 23 25 16 16 18 17 26 19 12 4 19 5 4 11 9 25 23 26 28 30 28 26 27 49 52 87 43 45 40 47 48 55 63
18 50 46 34 33 31 20 35 33 27 19 15 35 22 25 18 30 23 19 15 17 18 17 15 9 6 10 11 8 15 50 44 45 41 41 39 63 57 39 39 50 55 60 62 68
Wind_Direction_850mb
233 233 233 232 225 225 224 222 226 227 227 223 224 222 221 217 220 221 225 228 224 222 221 228 221 222 198 137 130 148 213 228 231 203 144 172 195 167 194 175 193 202 192 219 189
231 233 230 229 228 223 221 221 223 223 226 223 224 221 225 216 223 223 221 225 223 223 221 215 210 200 175 152 164 211 229 214 257 216 217 197 214 176 182 194 217 218 227 223 201
230 230 229 228 227 226 221 219 219 223 222 224 224 220 222 221 214 232 224 221 220 221 222 218 204 192 197 169 176 187 239 188 195 252 245 218 204 187 201 213 224 224 214 219 205
230 227 229 229 226 224 224 218 217 221 220 221 221 219 214 212 218 216 228 220 219 217 217 210 188 181 192 194 180 207 225 211 183 177 215 213 171 203 215 222 194 218 218 223 213
229 227 225 228 228 221 220 219 217 216 219 217 218 216 210 220 225 228 206 221 209 195 202 202 178 182 202 186 170 218 192 211 242 256 277 242 229 224 232 225 220 233 236 229 223
229 224 223 225 227 222 217 218 216 215 216 214 218 212 208 220 238 239 242 222 186 185 194 194 198 197 172 179 210 192 211 221 235 235 242 237 248 225 235 221 222 231 232 230 229
226 222 220 221 223 219 217 216 216 211 210 214 216 211 209 217 220 216 206 209 207 194 181 189 182 172 161 150 168 163 227 230 230 237 242 216 244 231 232 218 217 226 226 230 230
223 221 218 217 219 216 217 213 215 211 204 213 217 201 214 212 208 203 213 196 209 216 217 182 177 154 148 127 112 199 212 239 184 198 224 207 254 237 245 234 232 231 233 235 234
220 218 215 214 215 212 214 209 211 210 204 208 214 178 203 186 198 199 203 194 181 180 178 200 174 112 147 177 178 219 235 225 247 213 204 212 258 258 246 239 247 243 241 240 238
219 214 213 212 209 208 205 199 202 199 202 207 213 189 214 190 193 189 194 198 185 195 184 188 104 16 189 202 214 211 221 220 228 178 228 238 252 250 255 248 252 253 248 246 243
215 217 218 206 205 201 194 183 166 180 198 197 206 177 176 180 187 192 182 172 175 174 181 191 169 209 240 257 297 158 185 240 267 278 271 254 259 267 260 252 251 253 252 248 245
210 205 201 208 204 194 190 187 186 194 184 203 218 199 199 164 147 170 176 164 170 186 163 150 215 214 202 238 237 198 180 169 333 355 314 277 270 272 260 252 252 249 247 249 248
206 207 204 191 192 189 193 193 176 158 148 195 197 189 180 180 187 175 181 186 183 175 186 200 257 190 181 186 192 198 176 146 150 351 290 289 275 269 255 245 250 249 248 249 248
202 203 204 200 200 189 193 186 175 163 153 173 193 208 182 171 209 186 182 172 180 186 180 220 178 171 184 188 194 212 200 200 200 57 277 325 290 275 276 259 249 254 246 247 246
203 203 200 202 193 183 186 184 171 182 195 158 156 180 171 187 144 190 185 191 173 159 174 170 172 183 183 196 196 229 172 193 204 214 267 258 262 262 257 264 259 254 252 248 250
199 197 197 191 196 187 180 170 163 160 174 156 149 181 135 165 147 165 180 151 353 151 117 150 168 172 174 179 191 145 135 155 162 206 249 251 224 258 261 253 257 256 254 256 255
195 195 196 192 192 182 172 157 161 207 155 153 168 169 163 161 125 198 184 166 172 159 167 125 194 163 161 154 188 178 161 171 187 194 246 32 223 251 250 240 244 255 258 271 265
194 193 193 200 173 171 162 165 194 122 161 173 163 157 183 155 194 173 175 191 200 105 136 171 189 184 187 201 180 189 186 190 214 210 249 97 240 250 243 247 262 260 272 281 284
190 190 188 201 181 172 162 171 153 160 154 147 147 167 176 181 153 185 208 197 173 187 192 185 186 192 184 155 168 163 201 238 271 318 262 221 258 260 253 252 264 271 270 282 299
178 178 189 182 171 165 170 162 115 167 141 148 144 173 176 186 176 191 186 198 190 198 262 195 155 220 182 204 216 201 142 148 184 213 231 234 263 250 240 265 237 260 280 297 325
174 169 192 197 175 163 177 107 129 151 140 162 153 157 182 180 194 192 194 173 194 189 187 156 183 134 164 203 193 144 177 221 191 184 240 277 249 252 234 262 298 302 298 306 319
163 153 187 191 165 165 157 143 135 151 136 120 125 128 168 177 190 196 198 220 190 180 192 175 148 182 200 132 279 211 204 194 197 195 251 305 267 209 249 255 301 300 307 321 331
155 140 190 175 158 145 120 125 132 153 146 107 112 152 138 164 176 205 201 185 175 187 190 177 212 197 198 225 212 219 220 229 232 294 239 248 265 60 269 290 318 322 324 323 319
150 147 155 175 157 136 133 141 127 114 72 82 110 122 119 159 22 181 181 159 171 201 172 165 197 211 219 225 187 208 223 220 226 231 243 238 264 260 260 275 300 301 300 303 311
115 120 123 145 148 142 123 142 138 139 95 129 109 167 131 143 135 159 163 142 82 161 167 186 218 219 238 241 95 181 232 235 230 236 235 249 253 266 268 286 299 308 302 302 301
126 144 98 101 142 138 121 158 146 122 158 103 137 132 115 141 172 164 168 178 176 109 168 173 135 185 246 236 244 250 248 239 235 258 246 259 269 263 293 287 289 288 297 297 296
183 132 129 144 142 150 155 151 141 129 41 122 143 120 86 86 101 100 145 117 141 176 166 179 146 149 229 194 194 255 238 246 248 240 236 250 251 281 280 283 285 288 291 290 292